N5TSS Weather Reports


Display with metric or nautical units.
time (UTC)temp
F
wind
direction
speed
MPH
gust
MPH
rain 1hr
in
rain 24hr
in
rain mn
in
humidity
%
barometer
mb
20260509200336 88 336 0.0 0.0 0.00 0.00 0.00 66 1009.8
20260509195834 88 249 0.0 2.0 0.00 0.00 0.00 67 1009.8
20260509195334 88 29 0.0 1.0 0.00 0.00 0.00 67 1010.2
20260509194834 87 29 0.0 0.0 0.00 0.00 0.00 68 1010.2
20260509194330 87 29 1.0 2.0 0.00 0.00 0.00 70 1010.2
20260509193827 85 298 3.0 4.0 0.00 0.00 0.00 74 1010.5
20260509193327 83 278 0.0 0.0 0.00 0.00 0.00 78 1010.2
20260509192823 82 28 0.0 0.0 0.00 0.00 0.00 79 1010.5
20260509192319 83 0 1.0 2.0 0.00 0.00 0.00 79 1010.5
20260509191814 84 6 2.0 3.0 0.00 0.00 0.00 77 1010.8
20260509191311 84 15 2.0 2.0 0.00 0.00 0.00 73 1010.8
20260509190806 85 26 0.0 0.0 0.00 0.00 0.00 73 1010.8
20260509190304 86 26 0.0 0.0 0.00 0.00 0.00 71 1010.8
20260509185801 87 194 2.0 4.0 0.00 0.00 0.00 69 1010.8
20260509185257 87 120 0.0 0.0 0.00 0.00 0.00 68 1010.8
20260509184755 88 187 4.0 5.0 0.00 0.00 0.00 68 1010.5
20260509184252 86 141 3.0 4.0 0.00 0.00 0.00 69 1010.5
20260509183748 86 150 3.0 5.0 0.00 0.00 0.00 69 1011.2
20260509183244 87 151 4.0 6.0 0.00 0.00 0.00 69 1010.8
20260509182739 86 257 1.0 3.0 0.00 0.00 0.00 70 1011.2
20260509182237 86 255 0.0 0.0 0.00 0.00 0.00 68 1011.2
20260509181734 86 24 1.0 4.0 0.00 0.00 0.00 69 1011.2
20260509181232 85 164 4.0 5.0 0.00 0.00 0.00 72 1011.5
20260509180729 85 27 2.0 3.0 0.00 0.00 0.00 71 1011.5
20260509180225 86 332 2.0 3.0 0.00 0.00 0.00 70 1011.5
20260509175721 86 345 0.0 0.0 0.00 0.00 0.00 69 1011.5
20260509175218 86 15 0.0 2.0 0.00 0.00 0.00 71 1011.5
20260509174714 85 201 1.0 3.0 0.00 0.00 0.00 72 1011.5
20260509174209 84 1 0.0 0.0 0.00 0.00 0.00 74 1011.5
20260509173705 84 1 1.0 2.0 0.00 0.00 0.00 73 1011.5
20260509173201 83 358 1.0 2.0 0.00 0.00 0.00 75 1011.5
20260509172657 83 161 2.0 2.0 0.00 0.00 0.00 75 1011.5
20260509172154 83 145 2.0 4.0 0.00 0.00 0.00 77 1011.5
20260509171649 82 142 4.0 6.0 0.00 0.00 0.00 77 1011.5
20260509171146 82 175 3.0 4.0 0.00 0.00 0.00 77 1011.2
20260509170643 83 205 4.0 7.0 0.00 0.00 0.00 77 1011.2
20260509170139 82 166 3.0 4.0 0.00 0.00 0.00 76 1011.5
20260509165637 82 154 2.0 3.0 0.00 0.00 0.00 77 1011.9
20260509165133 82 329 2.0 4.0 0.00 0.00 0.00 77 1011.9
20260509164629 82 300 1.0 2.0 0.00 0.00 0.00 78 1011.9
20260509164125 82 301 2.0 4.0 0.00 0.00 0.00 78 1011.9
20260509163623 82 301 2.0 3.0 0.00 0.00 0.00 77 1011.9
20260509163118 82 309 0.0 0.0 0.00 0.00 0.00 76 1011.9
20260509162616 82 308 0.0 2.0 0.00 0.00 0.00 76 1012.2
20260509162112 82 308 3.0 3.0 0.00 0.00 0.00 76 1011.9
20260509161608 81 262 0.0 2.0 0.00 0.00 0.00 78 1012.2
20260509161108 81 262 0.0 0.0 0.00 0.00 0.00 79 1012.2
20260509160605 81 327 0.0 1.0 0.00 0.00 0.00 79 1012.2
20260509160100 80 327 0.0 1.0 0.00 0.00 0.00 79 1012.2
20260509155556 80 327 0.0 1.0 0.00 0.00 0.00 80 1012.5
20260509155053 80 327 0.0 2.0 0.00 0.00 0.00 80 1012.5
20260509154549 80 324 0.0 2.0 0.00 0.00 0.00 81 1012.2
20260509154046 79 130 1.0 2.0 0.00 0.00 0.00 82 1012.2
20260509153543 79 125 0.0 0.0 0.00 0.00 0.00 83 1012.2
20260509153040 79 156 4.0 5.0 0.00 0.00 0.00 83 1012.2
20260509152536 78 161 3.0 4.0 0.00 0.00 0.00 84 1011.9
20260509152033 78 131 2.0 6.0 0.00 0.00 0.00 84 1012.2
20260509151529 78 208 4.0 7.0 0.00 0.00 0.00 85 1011.9
20260509151027 78 69 1.0 2.0 0.00 0.00 0.00 86 1011.5
20260509150524 77 163 3.0 4.0 0.00 0.00 0.00 87 1011.9
20260509150023 77 180 4.0 5.0 0.00 0.00 0.00 87 1011.9
20260509145518 77 167 2.0 4.0 0.00 0.00 0.00 88 1011.9
20260509145013 77 122 1.0 3.0 0.00 0.00 0.00 89 1011.9
20260509144511 76 190 2.0 3.0 0.00 0.00 0.00 89 1011.9
20260509144008 76 156 1.0 2.0 0.00 0.00 0.00 90 1011.9
20260509143505 76 151 2.0 4.0 0.00 0.00 0.00 90 1011.9
20260509143003 76 183 2.0 3.0 0.00 0.00 0.00 90 1011.9
20260509142458 76 133 2.0 3.0 0.00 0.00 0.00 90 1011.5
20260509141953 76 179 1.0 2.0 0.00 0.00 0.00 90 1011.5
20260509141450 76 161 2.0 3.0 0.00 0.00 0.00 90 1011.2
20260509140947 75 216 3.0 4.0 0.00 0.00 0.00 91 1011.5
20260509140443 75 126 2.0 3.0 0.00 0.00 0.00 92 1011.5
20260509135942 75 202 1.0 2.0 0.00 0.00 0.00 92 1011.5
20260509135439 75 151 2.0 4.0 0.00 0.00 0.00 93 1011.9
20260509134936 75 163 2.0 3.0 0.00 0.00 0.00 94 1011.9
20260509134433 74 190 1.0 2.0 0.00 0.00 0.00 94 1011.9
20260509133931 74 156 0.0 1.0 0.00 0.00 0.00 95 1011.9
20260509133427 74 159 0.0 0.0 0.00 0.00 0.00 95 1011.9
20260509132926 73 217 1.0 2.0 0.00 0.00 0.00 95 1011.9
20260509132423 73 164 2.0 2.0 0.00 0.00 0.00 95 1011.9
20260509131920 73 146 2.0 2.0 0.00 0.00 0.00 96 1012.2
20260509131417 73 41 0.0 0.0 0.00 0.00 0.00 96 1012.2
20260509130914 73 35 0.0 1.0 0.00 0.00 0.00 96 1012.2
20260509130409 73 37 0.0 1.0 0.00 0.00 0.00 96 1012.2
20260509125906 73 37 1.0 1.0 0.00 0.00 0.00 96 1012.2
20260509125403 73 88 0.0 0.0 0.00 0.00 0.00 96 1012.2
20260509124859 73 88 0.0 0.0 0.00 0.00 0.00 96 1012.2
20260509124356 73 88 0.0 0.0 0.00 0.00 0.00 96 1012.2
20260509123854 73 88 0.0 0.0 0.00 0.00 0.00 96 1012.5
20260509123351 73 118 0.0 0.0 0.00 0.00 0.00 96 1012.2
20260509122847 73 56 0.0 0.0 0.00 0.00 0.00 96 1012.2
20260509122344 73 56 0.0 0.0 0.00 0.00 0.00 97 1012.2
20260509121840 73 57 2.0 2.0 0.00 0.00 0.00 96 1012.2
20260509121337 73 42 0.0 2.0 0.00 0.00 0.00 97 1012.2
20260509120836 73 79 0.0 0.0 0.00 0.00 0.00 97 1011.9
20260509120333 72 112 0.0 0.0 0.00 0.00 0.00 97 1011.9
20260509115831 72 158 1.0 2.0 0.00 0.00 0.00 97 1011.9
20260509115328 72 152 1.0 2.0 0.00 0.00 0.00 97 1011.9
20260509114826 72 168 0.0 0.0 0.00 0.00 0.00 97 1011.9
20260509114324 72 103 0.0 0.0 0.00 0.00 0.00 97 1011.9
20260509113823 72 161 1.0 1.0 0.00 0.00 0.00 97 1011.9
20260509113320 72 60 0.0 0.0 0.00 0.00 0.00 97 1011.5
20260509112816 72 140 0.0 0.0 0.00 0.00 0.00 97 1011.5
20260509112314 72 141 0.0 0.0 0.00 0.00 0.00 96 1011.5
20260509111811 72 148 0.0 0.0 0.00 0.00 0.00 96 1011.5
20260509111308 72 151 0.0 0.0 0.00 0.00 0.00 96 1011.5
20260509110805 72 173 2.0 2.0 0.00 0.00 0.00 96 1011.5
20260509110301 72 124 0.0 0.0 0.00 0.00 0.00 96 1011.5
20260509105800 72 168 0.0 0.0 0.00 0.00 0.00 96 1011.2
20260509105257 72 125 0.0 0.0 0.00 0.00 0.00 96 1011.2
20260509104754 72 213 0.0 0.0 0.00 0.00 0.00 96 1011.5
20260509104250 72 213 0.0 0.0 0.00 0.00 0.00 96 1011.5
20260509103749 72 151 2.0 3.0 0.00 0.00 0.00 96 1011.5
20260509103245 72 301 0.0 0.0 0.00 0.00 0.00 96 1011.9
20260509102744 72 347 0.0 0.0 0.00 0.00 0.00 96 1011.9
20260509102241 72 351 0.0 0.0 0.00 0.00 0.00 96 1011.9
20260509101737 72 312 2.0 2.0 0.00 0.00 0.00 96 1011.9
20260509101233 73 95 0.0 0.0 0.00 0.00 0.00 96 1011.9
20260509100731 73 134 0.0 0.0 0.00 0.00 0.00 96 1011.9
20260509100228 72 122 0.0 0.0 0.00 0.00 0.00 96 1011.5
20260509095724 72 66 0.0 1.0 0.00 0.00 0.00 95 1011.2
20260509095222 72 331 1.0 2.0 0.00 0.00 0.00 95 1011.5
20260509094719 72 338 1.0 2.0 0.00 0.00 0.00 95 1011.5
20260509094215 72 60 0.0 0.0 0.00 0.00 0.00 95 1011.5
20260509093714 72 60 0.0 0.0 0.00 0.00 0.00 95 1011.2
20260509093210 72 225 0.0 0.0 0.00 0.00 0.00 95 1011.2
20260509092709 72 130 0.0 0.0 0.00 0.00 0.00 95 1011.2
20260509092207 72 142 0.0 0.0 0.00 0.00 0.00 95 1011.5
20260509091705 73 19 0.0 0.0 0.00 0.00 0.00 95 1011.9
20260509091200 73 19 0.0 0.0 0.00 0.00 0.00 95 1011.9
20260509090658 72 18 0.0 0.0 0.00 0.00 0.00 95 1011.9
20260509090155 72 18 0.0 0.0 0.00 0.00 0.00 95 1011.9
20260509085653 72 18 0.0 0.0 0.00 0.00 0.00 95 1011.9
20260509085149 73 18 0.0 0.0 0.00 0.00 0.00 95 1011.9
20260509084646 72 18 0.0 0.0 0.00 0.00 0.00 95 1011.9
20260509084143 73 18 0.0 0.0 0.00 0.00 0.00 95 1011.9
20260509083641 73 102 0.0 0.0 0.00 0.00 0.00 95 1011.9
20260509083137 73 116 0.0 0.0 0.00 0.00 0.00 95 1011.9
20260509082634 72 153 0.0 0.0 0.00 0.00 0.00 95 1011.9
20260509082131 72 159 0.0 0.0 0.00 0.00 0.00 95 1011.5
20260509081628 72 136 0.0 0.0 0.00 0.00 0.00 95 1011.5
20260509081125 72 145 1.0 1.0 0.00 0.00 0.00 95 1011.9
20260509080623 72 115 0.0 0.0 0.00 0.00 0.00 95 1011.9
20260509080121 72 338 0.0 0.0 0.00 0.00 0.00 95 1011.9
20260509075618 72 338 0.0 0.0 0.00 0.00 0.00 95 1012.2
20260509075116 72 49 0.0 1.0 0.00 0.00 0.00 95 1012.2
20260509074613 72 225 0.0 0.0 0.00 0.00 0.00 95 1011.9
20260509074109 72 242 2.0 2.0 0.00 0.00 0.00 95 1011.9
20260509073606 72 90 0.0 0.0 0.00 0.00 0.00 95 1011.9
20260509073102 72 109 1.0 2.0 0.00 0.00 0.00 95 1011.9
20260509072559 72 124 2.0 4.0 0.00 0.00 0.00 95 1011.5
20260509072056 72 169 1.0 2.0 0.00 0.00 0.00 95 1011.5
20260509071553 72 131 0.0 2.0 0.00 0.00 0.00 95 1011.9
20260509071050 72 180 3.0 4.0 0.00 0.00 0.00 95 1011.9
20260509070547 72 127 2.0 3.0 0.00 0.00 0.00 95 1011.5
20260509070043 72 121 1.0 2.0 0.00 0.00 0.00 95 1011.9
20260509065539 72 213 2.0 4.0 0.00 0.00 0.00 95 1011.9
20260509065035 72 206 3.0 4.0 0.00 0.00 0.00 95 1011.9
20260509064533 72 204 1.0 4.0 0.00 0.00 0.00 95 1011.9
20260509064032 72 198 4.0 5.0 0.00 0.00 0.00 95 1011.5
20260509063532 72 194 2.0 2.0 0.00 0.00 0.00 95 1011.5
20260509063029 72 154 2.0 2.0 0.00 0.00 0.00 95 1011.5
20260509062526 72 128 2.0 4.0 0.00 0.00 0.00 95 1011.5
20260509062024 72 153 2.0 3.0 0.00 0.00 0.00 95 1011.9
20260509061521 72 134 2.0 5.0 0.00 0.00 0.00 95 1011.9
20260509061018 72 139 0.0 2.0 0.00 0.00 0.00 95 1011.9
20260509060515 72 204 3.0 3.0 0.00 0.00 0.00 95 1011.9
20260509060011 72 183 2.0 4.0 0.00 0.00 0.00 95 1011.9
20260509055506 72 163 1.0 3.0 0.00 0.00 0.00 95 1011.9
20260509055003 72 178 2.0 4.0 0.00 0.00 0.00 95 1012.2
20260509054500 72 182 0.0 2.0 0.00 0.00 0.00 94 1012.2
20260509053958 72 98 0.0 2.0 0.00 0.00 0.00 94 1012.2
20260509053456 72 226 1.0 3.0 0.00 0.00 0.00 94 1011.9
20260509052953 72 210 3.0 4.0 0.00 0.00 0.00 94 1012.2
20260509052450 72 176 4.0 6.0 0.00 0.00 0.00 94 1012.2
20260509051948 72 270 1.0 2.0 0.00 0.00 0.00 94 1011.9
20260509051446 72 152 1.0 2.0 0.00 0.00 0.00 94 1011.9
20260509050943 72 176 2.0 4.0 0.00 0.00 0.00 94 1012.2
20260509050439 72 147 2.0 3.0 0.00 0.00 0.00 94 1012.2
20260509045936 72 155 2.0 4.0 0.00 0.17 0.17 94 1012.2
20260509045433 72 219 4.0 8.0 0.00 0.17 0.17 93 1012.2
20260509044929 72 188 4.0 6.0 0.00 0.17 0.17 93 1012.2
20260509044428 72 183 4.0 6.0 0.00 0.17 0.17 93 1011.9
20260509043925 72 165 3.0 4.0 0.00 0.17 0.17 93 1011.9
20260509043420 72 167 3.0 7.0 0.00 0.17 0.17 93 1012.2
20260509042916 72 177 3.0 4.0 0.00 0.17 0.17 93 1011.9
20260509042413 72 162 2.0 4.0 0.00 0.17 0.17 93 1012.2
20260509041909 72 198 3.0 4.0 0.00 0.17 0.17 93 1011.9
20260509041406 72 163 2.0 5.0 0.00 0.17 0.17 92 1011.9
20260509040904 72 201 2.0 2.0 0.00 0.17 0.17 92 1011.9
20260509040402 72 149 2.0 5.0 0.00 0.17 0.17 92 1011.9
20260509035859 72 174 2.0 3.0 0.00 0.17 0.17 92 1011.9
20260509035356 72 163 2.0 2.0 0.00 0.17 0.17 92 1012.2
20260509034852 72 198 1.0 2.0 0.00 0.17 0.17 92 1012.2
20260509034350 72 163 1.0 3.0 0.00 0.17 0.17 92 1012.2
20260509033846 72 239 2.0 3.0 0.00 0.17 0.17 92 1012.2
20260509033344 72 170 1.0 3.0 0.00 0.17 0.17 92 1012.2
20260509032840 72 142 4.0 6.0 0.00 0.17 0.17 92 1011.9
20260509032338 72 119 2.0 3.0 0.00 0.17 0.17 91 1011.9
20260509031836 72 177 3.0 5.0 0.00 0.17 0.17 91 1011.9
20260509031332 72 193 4.0 6.0 0.00 0.17 0.17 91 1011.5
20260509030830 72 148 2.0 2.0 0.00 0.17 0.17 91 1011.5
20260509030328 72 194 2.0 4.0 0.00 0.17 0.17 91 1011.5
20260509025824 72 170 2.0 4.0 0.00 0.17 0.17 91 1011.2
20260509025320 73 124 2.0 4.0 0.00 0.17 0.17 91 1011.2
20260509024815 73 155 1.0 2.0 0.00 0.17 0.17 90 1011.2
20260509024312 73 152 1.0 2.0 0.00 0.17 0.17 90 1011.5
20260509023809 73 182 2.0 4.0 0.00 0.17 0.17 89 1011.5
20260509023306 73 152 4.0 7.0 0.00 0.17 0.17 88 1011.5
20260509022802 73 164 2.0 3.0 0.00 0.17 0.17 88 1011.2
20260509022300 73 175 3.0 5.0 0.00 0.17 0.17 87 1011.2
20260509021757 73 178 2.0 4.0 0.00 0.17 0.17 87 1011.2
20260509021254 74 170 3.0 5.0 0.00 0.17 0.17 87 1011.2
20260509020752 74 178 1.0 2.0 0.00 0.17 0.17 87 1011.2
20260509020249 74 142 0.0 0.0 0.00 0.17 0.17 86 1011.2
20260509015747 74 170 2.0 3.0 0.00 0.17 0.17 86 1011.2
20260509015245 74 158 1.0 3.0 0.00 0.17 0.17 86 1011.2
20260509014741 74 208 1.0 2.0 0.00 0.17 0.17 86 1011.2
20260509014238 74 170 3.0 6.0 0.00 0.17 0.17 86 1011.2
20260509013735 74 160 0.0 2.0 0.00 0.17 0.17 86 1011.2
20260509013230 74 171 0.0 1.0 0.00 0.17 0.17 86 1010.8
20260509012727 74 91 1.0 2.0 0.00 0.17 0.17 86 1011.2
20260509012224 74 100 0.0 0.0 0.00 0.17 0.17 86 1011.2
20260509011722 74 117 0.0 1.0 0.00 0.17 0.17 85 1010.8
20260509011219 74 107 2.0 3.0 0.00 0.17 0.17 85 1010.8
20260509010717 74 145 1.0 2.0 0.00 0.17 0.17 85 1010.5
20260509010213 74 93 1.0 2.0 0.00 0.17 0.17 84 1010.5
20260509005710 75 300 1.0 2.0 0.00 0.17 0.17 85 1010.5
20260509005207 75 175 1.0 3.0 0.00 0.17 0.17 84 1010.5
20260509004702 75 127 1.0 1.0 0.00 0.17 0.17 84 1010.5
20260509004200 75 77 0.0 2.0 0.00 0.17 0.17 84 1010.5
20260509003658 75 71 2.0 5.0 0.00 0.17 0.17 84 1010.8
20260509003155 75 216 1.0 2.0 0.00 0.17 0.17 84 1010.8
20260509002652 75 93 0.0 2.0 0.00 0.17 0.17 84 1010.8
20260509002150 75 188 3.0 4.0 0.00 0.17 0.17 83 1010.8
20260509001647 76 166 2.0 4.0 0.00 0.17 0.17 82 1010.8
20260509001143 76 170 1.0 2.0 0.00 0.17 0.17 81 1010.8
20260509000641 76 208 2.0 3.0 0.00 0.17 0.17 81 1010.8
20260509000138 76 154 3.0 4.0 0.00 0.17 0.17 80 1010.8
20260508235635 76 295 0.0 0.0 0.00 0.17 0.17 81 1010.8
20260508235131 76 30 0.0 0.0 0.00 0.17 0.17 80 1011.2
20260508234629 76 148 1.0 3.0 0.00 0.17 0.17 81 1011.2
20260508234125 76 340 0.0 1.0 0.00 0.17 0.17 81 1011.2
20260508233625 77 191 2.0 4.0 0.00 0.17 0.17 80 1011.2
20260508233122 77 173 1.0 3.0 0.00 0.17 0.17 80 1011.2
20260508232619 77 270 1.0 4.0 0.00 0.17 0.17 80 1010.8
20260508232115 77 175 2.0 4.0 0.00 0.17 0.17 81 1010.8
20260508231613 77 315 0.0 2.0 0.00 0.17 0.17 81 1010.8
20260508231110 77 327 1.0 2.0 0.00 0.17 0.17 82 1010.8
20260508230606 77 182 2.0 4.0 0.00 0.17 0.17 81 1010.8
20260508225601 77 234 2.0 3.0 0.00 0.17 0.17 80 1010.8
20260508225057 77 17 3.0 4.0 0.00 0.17 0.17 81 1010.8
20260508224555 78 18 2.0 2.0 0.00 0.17 0.17 81 1010.8
20260508224052 77 11 0.0 1.0 0.00 0.17 0.17 81 1010.8
20260508223550 77 105 1.0 3.0 0.00 0.17 0.17 81 1010.5
20260508223047 77 168 2.0 4.0 0.00 0.17 0.17 80 1010.8
20260508222544 78 177 3.0 4.0 0.00 0.17 0.17 80 1010.8
20260508222041 78 170 1.0 2.0 0.00 0.17 0.17 80 1010.8
20260508221537 78 177 2.0 3.0 0.00 0.17 0.17 79 1010.8
20260508221033 78 199 3.0 4.0 0.00 0.17 0.17 79 1010.8
20260508220530 78 182 2.0 3.0 0.00 0.17 0.17 78 1010.8
20260508220026 78 185 3.0 4.0 0.00 0.17 0.17 78 1010.8
20260508215523 78 36 1.0 2.0 0.00 0.17 0.17 80 1010.8
20260508215020 78 187 2.0 2.0 0.00 0.17 0.17 79 1010.8
20260508214518 78 205 2.0 2.0 0.00 0.17 0.17 79 1010.8
20260508214014 78 171 2.0 3.0 0.00 0.17 0.17 79 1010.8
20260508213512 78 0 0.0 0.0 0.00 0.17 0.17 78 1010.8
20260508213007 78 2 0.0 2.0 0.00 0.17 0.17 78 1010.8
20260508212503 79 157 4.0 6.0 0.00 0.17 0.17 77 1010.8
20260508212000 79 133 2.0 4.0 0.00 0.17 0.17 77 1010.8
20260508211455 78 66 0.0 2.0 0.00 0.17 0.17 78 1011.2
20260508210952 79 158 3.0 4.0 0.00 0.17 0.17 77 1011.2
20260508210449 79 356 1.0 2.0 0.00 0.17 0.17 77 1011.2
20260508205945 79 164 1.0 2.0 0.00 0.17 0.17 77 1011.2
20260508205442 79 193 1.0 3.0 0.00 0.17 0.17 77 1011.2
20260508204938 78 160 4.0 5.0 0.00 0.17 0.17 78 1011.2
20260508204436 78 182 2.0 3.0 0.00 0.17 0.17 77 1011.2
20260508203931 78 148 0.0 2.0 0.00 0.17 0.17 78 1011.5
20260508203428 78 177 2.0 4.0 0.00 0.17 0.17 77 1011.5
20260508202924 79 11 0.0 0.0 0.00 0.17 0.17 76 1011.5
20260508202421 79 165 1.0 2.0 0.00 0.17 0.17 76 1011.5
20260508201918 79 252 2.0 3.0 0.00 0.17 0.17 76 1011.5
20260508201415 79 255 2.0 6.0 0.00 0.17 0.17 75 1011.5
20260508200911 79 124 1.0 3.0 0.00 0.17 0.17 76 1011.9